Wind_Speed
29 40 47 52 54 69 84 89 90 91 87 88 86 88 87 84 78 70 68 63 59 56 54 54 50 50 51 41 37 36 33 30 27 28 29 23 21 23 18 19 19 15 15 16 14 11 10 10 9
20 31 47 51 43 47 67 89 96 88 86 82 84 86 85 85 85 78 75 73 67 63 57 55 53 50 46 43 40 37 35 31 27 29 28 25 23 22 22 19 19 17 18 18 16 13 11 11 10
29 21 27 35 36 46 51 70 83 88 83 83 83 86 88 84 85 86 82 77 72 68 63 60 56 54 50 47 44 44 38 34 32 31 28 25 24 26 24 20 20 18 20 21 19 17 14 13 12
32 33 25 34 37 48 53 53 67 77 92 84 83 80 81 85 87 82 81 80 77 74 70 65 60 57 54 51 49 45 43 39 35 32 31 30 28 27 25 23 22 21 21 24 24 21 17 15 16
45 44 36 39 35 37 41 33 46 61 71 84 85 83 82 79 80 79 76 76 76 75 72 68 64 61 58 55 51 48 45 41 37 36 35 33 31 29 28 26 24 22 24 26 27 25 21 18 17
51 56 55 50 40 35 32 33 37 53 64 73 84 84 84 81 78 76 73 72 72 72 71 70 67 62 60 58 55 51 48 43 41 37 37 36 32 30 29 27 23 23 25 28 30 29 26 22 20
53 58 56 53 41 39 38 36 42 46 58 69 76 83 85 82 78 74 70 70 71 71 72 70 69 65 63 62 59 54 50 46 43 41 39 37 35 31 30 30 27 25 26 27 32 32 30 27 23
52 57 54 48 42 37 40 39 44 49 56 62 69 77 83 84 78 74 69 66 69 71 70 69 68 67 65 64 59 56 51 49 46 44 41 39 36 33 32 33 30 28 27 27 30 33 33 30 27
55 56 60 53 43 41 33 36 40 48 53 61 66 72 81 84 78 76 72 66 65 67 69 69 69 67 65 64 62 60 56 54 50 48 44 42 40 37 36 34 35 32 30 29 30 33 34 34 32
53 53 48 50 47 44 36 36 38 41 48 58 65 73 75 78 79 77 73 70 64 63 66 67 66 67 67 65 63 61 58 56 52 49 48 46 45 41 40 38 38 37 35 32 32 34 37 37 38
58 47 47 48 46 43 39 36 38 41 43 54 61 69 74 75 77 76 76 73 67 63 64 64 63 64 65 64 62 61 60 58 55 53 51 49 48 47 43 43 42 41 39 38 35 35 38 40 41
50 41 40 38 43 41 40 41 41 45 44 52 62 62 71 72 74 74 74 69 64 67 66 64 63 62 63 64 63 62 61 60 58 57 55 53 52 50 48 48 47 46 45 44 41 38 39 41 43
43 47 40 35 37 39 38 38 42 47 46 53 63 62 68 68 68 70 65 64 63 64 68 68 64 61 62 64 66 63 60 60 60 59 58 56 55 54 53 51 50 49 48 48 46 42 40 41 43
47 46 37 36 36 36 33 35 39 47 47 52 60 63 63 65 63 62 67 68 68 64 70 68 67 62 62 63 67 67 65 62 59 59 60 59 60 58 55 53 53 51 51 50 48 46 44 43 45
49 44 37 38 37 34 30 31 38 46 50 53 60 64 64 67 64 58 59 65 68 65 60 64 66 66 64 64 64 68 69 68 64 62 59 62 62 61 58 54 53 52 51 52 50 50 48 48 46
48 43 36 38 33 32 25 30 36 44 51 54 59 61 64 68 74 68 66 67 65 70 64 63 63 64 61 62 60 58 66 69 67 66 60 58 62 62 59 56 55 54 52 52 50 50 49 49 49
52 46 38 38 29 26 23 27 33 40 51 56 58 60 63 68 74 78 73 71 74 70 71 72 71 69 64 60 58 58 58 61 68 68 67 57 51 61 61 61 58 56 55 52 52 50 50 51 51
56 50 44 43 29 21 20 24 30 37 45 56 60 60 63 68 71 76 79 78 71 67 68 71 71 70 68 64 61 60 56 57 63 69 69 70 60 47 49 56 58 56 54 54 54 53 52 52 52
57 49 46 46 34 21 18 22 28 36 43 52 60 63 64 69 72 76 79 78 77 76 67 62 66 72 69 66 64 59 58 61 62 64 68 70 67 65 58 52 48 50 51 53 55 55 55 54 54
61 51 48 46 40 25 16 19 26 33 41 48 57 63 65 69 73 74 76 77 78 76 74 67 63 65 68 68 68 61 54 48 48 54 65 67 67 68 64 61 59 56 55 54 52 49 50 53 56
67 54 50 48 43 30 17 16 22 30 40 48 54 63 66 67 72 75 75 75 73 75 74 72 68 62 62 66 71 68 62 53 54 54 59 68 66 68 70 64 62 61 61 59 59 59 57 53 51
68 59 53 52 45 31 19 13 18 28 36 45 51 60 66 67 69 74 76 75 73 73 75 75 73 66 64 65 69 68 64 70 60 57 50 54 59 61 64 70 64 64 63 65 64 61 61 64 63
69 62 55 55 49 36 25 14 12 22 33 41 48 56 64 68 69 71 74 76 75 72 73 76 76 77 66 71 70 71 71 68 67 61 59 61 62 62 63 59 57 58 58 66 69 72 72 71 71
68 64 58 57 52 42 29 20 12 18 29 40 45 51 59 68 70 70 71 73 75 73 73 74 76 76 78 74 73 72 71 74 71 68 65 68 68 70 67 59 67 62 61 62 66 70 71 78 79
66 65 60 59 52 43 32 23 15 17 23 32 44 47 51 58 69 70 69 70 72 73 72 74 76 78 78 80 82 77 73 74 76 73 70 67 64 68 58 58 57 58 62 66 69 68 65 67 69
66 66 61 60 51 44 33 26 19 15 21 26 36 44 48 50 59 68 69 69 70 73 74 73 76 80 80 78 79 79 81 80 76 74 75 73 72 73 65 65 62 64 63 64 68 68 63 65 67
63 64 62 59 51 44 35 29 22 16 15 21 28 37 44 48 49 57 68 71 71 72 74 77 76 78 82 83 80 81 81 82 84 81 79 80 79 80 75 74 72 71 65 58 60 64 66 67 70
59 61 62 59 52 44 36 30 24 16 13 13 20 29 36 43 48 50 55 65 71 71 72 76 78 79 78 82 86 86 84 85 86 87 86 84 84 83 83 82 82 82 78 70 64 69 67 70 77
56 60 60 58 53 46 37 30 25 19 12 9 10 18 28 35 42 47 50 55 65 73 74 75 76 79 82 82 82 84 87 88 88 88 88 89 89 89 90 93 91 89 87 83 81 82 83 81 82
54 57 58 57 51 48 40 32 25 19 15 8 5 7 15 23 31 37 43 47 52 60 69 75 75 78 81 83 87 88 87 89 91 93 94 93 93 93 93 93 93 91 90 95 97 96 98 99 96
Wind_Direction
254 247 244 252 251 250 246 243 243 247 250 252 250 246 248 250 251 252 255 252 250 251 253 256 256 260 265 263 267 273 280 280 286 296 298 303 303 308 320 318 318 289 271 277 275 276 281 275 259
274 254 241 243 258 259 245 244 241 246 250 253 253 253 251 250 251 255 259 256 250 251 251 251 254 255 259 262 266 269 274 272 276 287 296 304 294 299 307 311 312 292 273 277 274 275 281 270 256
284 271 262 256 254 255 248 239 237 242 248 250 251 252 251 253 253 258 257 254 250 251 250 250 250 253 256 258 262 268 269 269 273 279 289 293 297 289 298 303 305 293 275 272 274 279 281 272 253
311 295 282 273 278 251 243 246 237 240 243 246 247 248 248 252 253 253 253 253 250 250 249 250 248 249 251 254 257 260 265 263 267 273 277 286 293 288 289 293 298 291 275 272 275 278 278 271 257
312 312 303 296 285 270 251 257 242 236 239 240 241 244 246 246 247 247 247 248 248 247 247 247 245 246 249 249 252 256 258 259 260 267 271 280 284 285 281 284 289 286 276 267 272 274 276 277 265
315 317 314 301 294 277 266 261 248 238 234 237 237 240 241 241 242 243 241 241 241 244 244 244 246 245 247 248 249 251 253 255 257 261 263 272 274 278 273 277 279 280 279 269 265 273 274 276 274
315 315 311 310 297 284 269 254 242 241 237 233 235 234 239 237 237 238 236 236 236 239 242 243 243 245 245 246 249 250 251 253 254 259 258 262 268 266 265 267 270 273 273 273 269 269 270 272 274
308 310 312 307 296 288 271 261 254 246 241 233 232 234 235 235 233 233 235 233 233 235 236 240 241 241 243 245 246 247 248 249 251 255 254 254 258 257 257 260 262 266 268 270 272 268 269 269 270
316 310 305 305 299 290 275 256 252 250 244 236 230 229 231 234 233 232 231 232 233 232 235 235 238 240 242 242 244 245 247 249 250 249 251 250 250 251 250 252 257 259 261 264 267 266 266 268 268
317 314 306 300 295 291 282 259 253 246 242 233 229 227 229 231 232 231 230 231 231 233 233 235 236 237 239 242 242 244 245 246 246 247 250 249 246 249 247 248 251 255 255 258 262 263 262 264 267
319 311 295 293 290 286 278 261 255 244 237 233 230 227 227 229 230 231 231 231 231 231 231 232 231 232 234 237 239 241 243 244 243 243 245 248 246 247 247 247 247 250 253 255 254 257 260 263 264
321 314 306 292 289 284 273 261 248 243 231 229 230 227 226 226 228 228 228 226 226 229 230 230 233 233 232 232 235 237 240 241 243 242 241 244 246 245 248 249 248 248 250 253 253 254 258 258 262
330 320 313 299 291 285 275 260 244 234 230 224 227 225 223 222 227 227 226 227 226 227 229 231 233 236 236 235 233 232 237 239 240 242 241 242 244 246 248 249 250 252 253 254 256 254 255 260 261
337 326 321 312 306 295 277 254 234 228 227 222 224 226 220 219 220 223 224 228 227 226 229 232 234 236 236 235 235 233 231 233 237 241 243 243 243 245 247 249 250 252 254 255 253 253 254 258 261
340 331 324 320 314 300 277 248 227 219 222 221 221 224 221 216 212 211 215 220 225 223 227 231 233 233 236 236 236 235 236 231 233 237 242 245 244 246 247 249 251 254 253 256 257 254 254 256 260
343 338 331 332 319 302 275 244 224 216 217 219 220 222 222 218 217 215 213 215 218 223 221 220 225 229 231 233 236 239 238 238 236 235 239 243 246 246 248 252 254 253 254 256 255 256 257 259 261
345 342 337 343 323 297 272 244 223 218 212 215 221 220 220 220 219 219 217 216 220 223 225 225 226 226 227 231 231 234 238 239 240 240 240 241 247 249 250 251 252 254 254 255 258 259 259 259 260
351 349 341 348 335 302 270 244 224 217 214 214 216 220 220 220 221 221 223 224 220 221 227 229 228 230 230 229 231 233 237 241 243 240 241 242 242 245 254 255 256 258 260 260 259 259 262 263 263
352 353 347 349 344 320 276 250 226 220 215 215 216 218 218 219 223 223 221 224 224 222 220 228 232 230 233 234 232 234 239 242 242 242 242 242 244 250 246 243 253 259 263 265 265 266 262 261 265
351 354 351 351 347 336 297 256 233 221 218 217 217 218 219 219 222 225 227 223 223 223 224 222 228 232 234 235 231 231 233 235 238 241 242 244 247 245 246 248 248 249 250 250 254 261 269 272 269
348 352 353 353 351 339 317 266 242 224 220 218 220 219 221 219 220 223 227 229 225 224 224 225 225 229 231 235 236 232 228 230 231 237 242 241 247 249 251 253 253 253 253 255 256 258 259 261 267
346 349 354 352 353 343 341 297 249 228 219 221 220 219 219 223 222 222 225 228 228 225 225 226 226 226 231 227 236 235 233 229 229 236 234 237 240 244 249 250 254 255 257 256 258 259 259 259 259
344 348 353 351 353 350 348 336 275 232 222 220 222 222 222 222 223 223 224 227 230 228 225 225 228 226 223 226 230 234 233 234 236 237 230 236 237 242 242 245 250 250 254 258 259 260 259 262 262
344 347 353 350 352 352 352 351 306 242 227 220 221 225 226 225 226 226 225 226 229 229 229 227 227 229 229 225 230 235 237 237 238 237 237 237 241 245 250 248 248 251 253 257 260 260 260 262 264
344 346 351 350 350 350 352 353 327 265 239 230 222 223 226 227 228 229 228 228 228 231 230 229 228 228 231 234 233 230 234 238 238 239 236 235 237 239 241 240 246 250 254 258 260 260 260 261 265
344 345 349 349 349 349 351 353 340 297 257 239 226 224 226 226 227 229 231 231 231 230 232 232 231 229 230 232 235 237 237 236 238 239 231 234 236 238 234 235 243 250 253 255 257 262 264 268 270
344 344 346 348 350 348 347 352 347 322 275 246 232 225 226 226 229 229 230 232 233 233 232 233 235 233 232 233 234 235 237 240 240 238 237 238 237 237 238 238 242 247 247 248 253 255 260 265 269
344 343 347 348 351 350 347 348 347 340 316 273 242 229 226 227 228 232 232 232 234 235 236 235 235 237 236 235 237 237 237 238 240 242 241 241 239 239 237 236 241 245 246 245 247 256 260 265 267
344 345 346 348 352 352 348 346 344 343 333 317 261 239 232 228 228 229 232 234 235 235 236 237 238 237 238 240 239 239 240 240 240 241 243 244 244 244 243 242 246 246 246 244 243 248 253 257 261
345 346 347 348 352 355 350 344 340 339 335 319 313 242 231 233 232 231 230 233 236 239 240 240 240 240 240 240 241 242 242 241 241 242 242 242 241 243 244 245 247 249 249 246 248 253 256 259 260
Height
10776 10776 10776 10781 10784 10779 10779 10786 10794 10798 10801 10801 10807 10812 10817 10821 10823 10827 10831 10834 10836 10838 10839 10841 10843 10847 10851 10854 10858 10858 10859 10859 10859 10860 10860 10861 10860 10859 10858 10857 10855 10853 10852 10852 10852 10852 10851 10850 10849
10766 10768 10767 10765 10763 10759 10759 10769 10776 10783 10786 10788 10792 10795 10800 10806 10811 10815 10819 10824 10828 10830 10833 10834 10837 10840 10843 10847 10851 10854 10855 10855 10856 10856 10857 10858 10858 10857 10856 10855 10853 10851 10850 10850 10850 10851 10850 10849 10848
10756 10756 10753 10753 10747 10741 10746 10752 10764 10765 10769 10772 10776 10779 10786 10790 10798 10802 10808 10813 10818 10821 10824 10825 10830 10833 10836 10839 10843 10847 10849 10850 10851 10852 10853 10854 10854 10854 10854 10852 10851 10849 10848 10847 10848 10848 10848 10847 10846
10743 10741 10740 10737 10731 10729 10730 10740 10751 10752 10753 10758 10763 10766 10770 10775 10783 10789 10794 10802 10807 10812 10814 10816 10822 10825 10828 10832 10835 10840 10842 10844 10845 10846 10848 10850 10850 10850 10850 10850 10849 10847 10846 10845 10845 10845 10845 10845 10843
10732 10727 10725 10721 10718 10716 10718 10722 10728 10735 10737 10741 10747 10750 10757 10762 10769 10775 10782 10788 10794 10800 10804 10807 10812 10816 10819 10823 10827 10832 10835 10837 10838 10840 10842 10844 10845 10845 10846 10846 10846 10844 10843 10842 10842 10842 10842 10842 10840
10713 10708 10706 10706 10702 10698 10701 10703 10707 10714 10718 10724 10729 10734 10740 10749 10754 10762 10769 10776 10782 10787 10792 10796 10802 10806 10810 10814 10819 10823 10826 10829 10831 10833 10835 10837 10839 10839 10840 10841 10841 10840 10839 10838 10838 10838 10838 10838 10838
10701 10697 10693 10688 10683 10683 10683 10684 10688 10692 10699 10706 10709 10717 10725 10733 10740 10749 10756 10765 10770 10775 10780 10785 10790 10796 10800 10805 10809 10814 10818 10821 10823 10825 10828 10830 10832 10834 10835 10835 10836 10835 10835 10834 10834 10834 10834 10833 10834
10689 10684 10676 10670 10666 10668 10666 10666 10668 10674 10679 10688 10695 10702 10709 10715 10726 10737 10745 10751 10757 10763 10768 10774 10780 10785 10790 10794 10800 10805 10809 10812 10815 10816 10820 10822 10825 10827 10828 10830 10831 10830 10830 10830 10830 10830 10829 10829 10829
10680 10670 10660 10652 10649 10650 10649 10650 10653 10657 10663 10671 10680 10686 10693 10704 10714 10725 10732 10737 10745 10751 10757 10763 10768 10775 10779 10785 10789 10794 10799 10803 10806 10808 10811 10813 10815 10818 10821 10822 10824 10824 10824 10824 10824 10824 10824 10824 10824
10668 10656 10645 10637 10633 10632 10632 10634 10636 10639 10648 10656 10665 10671 10679 10691 10700 10711 10721 10728 10735 10742 10747 10753 10758 10764 10769 10774 10779 10784 10789 10793 10797 10799 10802 10804 10806 10809 10812 10813 10816 10817 10817 10817 10818 10818 10818 10817 10817
10655 10643 10632 10622 10618 10616 10617 10619 10620 10624 10632 10642 10649 10658 10666 10678 10687 10697 10709 10717 10726 10733 10737 10743 10747 10752 10758 10763 10769 10774 10779 10782 10786 10790 10793 10795 10798 10800 10804 10805 10806 10807 10808 10809 10809 10811 10811 10811 10810
10644 10631 10619 10611 10603 10602 10603 10603 10603 10609 10614 10625 10632 10643 10653 10663 10674 10682 10695 10704 10712 10719 10726 10733 10738 10742 10747 10753 10759 10764 10769 10773 10775 10780 10782 10785 10788 10791 10794 10796 10796 10797 10798 10800 10801 10801 10802 10802 10802
10629 10616 10604 10597 10591 10587 10584 10585 10587 10592 10599 10608 10616 10628 10638 10652 10663 10672 10683 10695 10702 10707 10713 10720 10727 10733 10738 10744 10748 10753 10760 10765 10767 10770 10773 10775 10777 10781 10784 10786 10788 10789 10790 10791 10792 10792 10792 10794 10794
10615 10604 10592 10584 10577 10570 10567 10565 10571 10578 10586 10595 10604 10615 10630 10642 10654 10663 10672 10680 10687 10694 10701 10708 10717 10722 10727 10732 10737 10742 10748 10753 10757 10761 10763 10765 10767 10769 10774 10776 10778 10780 10781 10782 10783 10783 10784 10784 10784
10604 10591 10581 10571 10561 10554 10551 10551 10556 10563 10572 10581 10589 10601 10615 10628 10639 10647 10654 10662 10672 10678 10689 10696 10704 10708 10714 10721 10725 10730 10735 10739 10744 10748 10751 10754 10757 10759 10762 10766 10769 10770 10771 10773 10773 10774 10774 10774 10774
10593 10581 10571 10559 10549 10542 10539 10540 10544 10549 10559 10569 10577 10588 10600 10614 10625 10633 10640 10649 10660 10667 10675 10683 10690 10695 10702 10708 10715 10720 10724 10729 10734 10737 10739 10742 10746 10749 10752 10757 10759 10760 10762 10763 10764 10765 10766 10765 10765
10584 10571 10561 10551 10541 10534 10530 10531 10534 10538 10546 10556 10566 10576 10586 10598 10607 10618 10626 10634 10645 10655 10662 10672 10676 10682 10689 10696 10702 10707 10712 10717 10722 10727 10729 10733 10736 10739 10742 10746 10748 10750 10752 10753 10755 10756 10756 10755 10755
10575 10563 10553 10541 10533 10527 10523 10523 10525 10528 10534 10544 10553 10563 10575 10583 10594 10605 10615 10625 10634 10645 10653 10661 10667 10671 10678 10683 10690 10697 10704 10707 10710 10714 10717 10723 10726 10728 10732 10735 10738 10740 10742 10744 10746 10745 10745 10746 10745
10572 10559 10548 10535 10526 10520 10516 10516 10517 10520 10524 10532 10541 10550 10561 10572 10580 10587 10597 10610 10623 10633 10641 10650 10654 10662 10666 10673 10680 10687 10692 10695 10698 10703 10708 10710 10714 10720 10723 10725 10726 10729 10732 10734 10733 10733 10735 10734 10735
10565 10553 10543 10532 10520 10514 10509 10507 10509 10511 10516 10522 10531 10539 10549 10560 10567 10576 10584 10595 10606 10619 10630 10637 10643 10651 10655 10661 10667 10677 10681 10681 10686 10692 10696 10700 10703 10706 10710 10714 10715 10716 10717 10718 10719 10721 10722 10723 10724
10558 10548 10539 10528 10517 10508 10502 10498 10499 10503 10507 10512 10518 10527 10536 10546 10556 10563 10572 10582 10595 10607 10617 10625 10632 10639 10644 10648 10654 10666 10668 10667 10675 10678 10681 10686 10691 10695 10699 10702 10704 10704 10705 10707 10708 10710 10711 10711 10710
10552 10542 10532 10523 10514 10504 10496 10492 10491 10495 10499 10504 10509 10515 10523 10534 10543 10552 10560 10568 10579 10591 10602 10611 10619 10626 10632 10635 10642 10652 10656 10656 10662 10665 10670 10673 10675 10680 10681 10687 10689 10690 10691 10692 10694 10696 10697 10697 10696
10549 10538 10528 10519 10510 10500 10492 10486 10485 10488 10492 10496 10501 10506 10513 10520 10530 10539 10549 10557 10566 10577 10587 10597 10604 10613 10619 10623 10629 10637 10643 10644 10649 10656 10657 10658 10664 10667 10667 10672 10674 10675 10675 10677 10679 10681 10682 10684 10684
10547 10535 10524 10516 10506 10496 10489 10484 10481 10482 10485 10489 10494 10499 10504 10511 10518 10527 10536 10546 10554 10564 10573 10583 10593 10599 10607 10611 10617 10623 10629 10632 10637 10641 10644 10646 10651 10656 10658 10661 10662 10663 10665 10665 10666 10668 10669 10670 10671
10546 10533 10523 10514 10505 10496 10487 10482 10479 10477 10478 10481 10485 10491 10496 10501 10509 10517 10526 10535 10543 10551 10560 10568 10578 10586 10592 10598 10604 10609 10615 10619 10624 10628 10631 10634 10639 10643 10647 10650 10650 10651 10652 10654 10653 10656 10657 10656 10657
10542 10530 10520 10512 10504 10495 10487 10480 10476 10474 10474 10475 10478 10483 10488 10493 10499 10506 10515 10523 10530 10538 10546 10554 10561 10569 10576 10583 10589 10595 10600 10604 10609 10613 10618 10623 10627 10629 10633 10635 10637 10639 10641 10640 10642 10642 10642 10642 10641
10542 10530 10519 10510 10501 10492 10485 10479 10474 10471 10469 10470 10471 10474 10479 10484 10490 10496 10503 10510 10516 10524 10531 10538 10545 10553 10561 10568 10574 10579 10584 10589 10593 10597 10604 10608 10611 10613 10620 10623 10624 10627 10628 10628 10629 10629 10630 10629 10627
10543 10530 10517 10508 10499 10491 10484 10478 10474 10470 10467 10466 10466 10468 10472 10477 10482 10487 10492 10499 10505 10510 10516 10523 10530 10537 10544 10550 10556 10562 10567 10572 10575 10579 10585 10591 10594 10597 10604 10607 10610 10614 10614 10615 10618 10619 10617 10616 10616
10541 10529 10517 10509 10498 10489 10482 10477 10473 10469 10466 10464 10463 10464 10467 10470 10474 10478 10482 10485 10490 10495 10500 10506 10513 10520 10526 10532 10538 10544 10549 10553 10557 10563 10566 10570 10575 10580 10585 10589 10594 10596 10599 10602 10603 10605 10605 10605 10602
10539 10528 10517 10507 10499 10490 10481 10475 10471 10468 10466 10464 10463 10462 10462 10464 10466 10470 10474 10476 10479 10482 10487 10493 10498 10503 10508 10512 10516 10521 10527 10532 10537 10540 10544 10548 10553 10558 10562 10568 10572 10575 10580 10584 10587 10589 10588 10587 10587